Location: Blue Pit
(43.1414°N, 93.2208°W)
Time: 01:53:28
(UTC+00:00)

Gbstr 26 Del rocket - Pass Details

Date: 18 November 2025
Orbit: 489 x 1220 km, 51.8° (Epoch: 08 December)

Event Time Altitude Azimuth Distance (km) Brightness Sun altitude
Exits shadow 12:17:46 11° 306° (NW) 2,216 5.3 -9.6°
Maximum altitude 12:22:57 68° 30° (NNE) 929 4.0 -8.8°
Drops below altitude 10° 12:29:30 10° 113° (ESE) 2,776 8.2 -7.6°
Sets 12:32:25 0° 115° (ESE) 3,834 9.6 -7.1°
